Statistiken

Seite 111 von 349 |< · · [108] [109] [110] [111] [112] [113] [114] · · >|

Die meistgelesenen Zitate

Nr. Zitat Pkte. Bew. Aufr. Mails Kom. Datum
5501 Alte Schuld rostet nicht. ... 1.5400 50 4754 2 12 26.08.05 00:00
5502 Den Kranken ärgert die Fliege an der Wand. ... 0.0000 1 4751 1 1 26.08.05 00:00
5503 Jeder Arbeiter ist seines Lohnes wert. ... 0.0000 10 4747 0 0 26.08.05 00:00
5504 Wer alles will, bekommt nichts. ... 1.8824 17 4746 3 1 26.08.05 00:00
5505 Anschauen macht Liebe, Gelegenheit Diebe. ... 0.4286 14 4744 0 0 26.08.05 00:00
5506 Wer Liebe stiehlt, ist kein Dieb. ... -0.5000 14 4741 0 0 26.08.05 00:00
5507 Wer höher fliegt, als er Federn hat, Der ... 1.2500 4 4740 0 0 26.08.05 00:00
5508 Liebe, Diebe und Furchtsamkeit machen Gespenster. ... 0.0000 5 4738 0 0 26.08.05 00:00
5509 Freud und Leid sind nahe Nachbarn. ... 1.7872 47 4737 1 0 26.08.05 00:00
5510 Ein Doktor und ein Bauer wissen mehr denn ... 1.2174 23 4737 1 0 26.08.05 00:00
5511 Schmeichler, Heuchler. ... 1.8571 56 4736 0 0 26.08.05 00:00
5512 Wer leicht traut, wird leicht betrogen. ... 1.5600 25 4735 2 0 26.08.05 00:00
5513 Alles steht in Gottes Hand. ... 1.2500 4 4735 0 0 26.08.05 00:00
5514 Heutzutage haben die Wissenschaftler mehr ... 1.2400 25 4735 0 3 09.02.08 13:51
5515 Laß den Storch in seinem Nest zufrieden. ... 1.7600 25 4734 0 1 26.08.05 00:00
5516 Erst schmeicheln, dann kratzen, das schickt ... 0.5714 7 4733 3 4 26.08.05 00:00
5517 Ich hätte Adenauer nie gestürzt. Von mir ... 1.0238 42 4733 1 1 11.09.06 11:47
5518 Die Zeit gibt Bescheid und verrät alle Bosheit. ... 1.0625 16 4729 2 2 26.08.05 00:00
5519 Jokele, geh du voran! Du hast Stiefel und ... 1.0000 2 4728 3 0 26.08.05 00:00
5520 Das Angenehme an den Kindern von Verwandten ... 0.8462 13 4728 0 2 25.02.08 15:50
5521 Der Große stürzt: seht seinen Günstling fliehn; Der ... 1.2500 8 4727 0 0 04.12.07 18:42
5522 Spotte nicht mit der Eule, das ist auch ein Vogel. ... 1.4000 20 4726 1 0 26.08.05 00:00
5523 Die Liebe macht Lappen. ... 0.0000 6 4725 0 1 26.08.05 00:00
5524 Viele können einem helfen. ... 0.0000 1 4724 0 0 26.08.05 00:00
5525 Unbedacht hat manches schon ans Licht gebracht. ... 0.4118 17 4723 1 13 26.08.05 00:00
5526 Zum Verlieren ist nichts besser als Vergessen. ... 1.0000 6 4723 0 0 26.08.05 00:00
5527 Wer sich nicht vor seiner Frau fürchtet, hat keine. ... 1.3125 16 4722 1 3 23.09.07 14:51
5528 Geld ist Königin, Tugend und Kunst ihre ... 0.1667 6 4722 0 0 26.08.05 00:00
5529 Herodes und Pilatus sind gute Freunde. ... -0.6000 15 4717 0 0 26.08.05 00:00
5530 Hätt' ich Glück und guten Wind, ich führ' ... -0.2000 10 4715 0 0 26.08.05 00:00
5531 Journalisten sind die Geburtshelfer und Totengräber ... 1.4074 27 4707 2 0 04.08.05 18:55
5532 Das Wasser ist am besten an der Quelle. ... 1.0000 10 4707 1 0 26.08.05 00:00
5533 Wenn Hochzeiter und Braut beisammen sind, ... -1.0000 13 4706 0 0 26.08.05 00:00
5534 Männer verschweigen fremde, Weiber eigene Geheimnisse. ... 0.0000 4 4705 7 0 26.08.05 00:00
5535 Die Liebe geht unter sich, nicht über sich. ... 0.7143 7 4705 0 0 26.08.05 00:00
5536 Die Gesellschaft ist ein Segen, eine Regierung, ... 0.3750 16 4705 0 1 14.09.06 09:30
5537 Ein fauler Apfel macht zehn. ... 1.2500 4 4700 0 0 26.08.05 00:00
5538 Neid ist des Glücks Gefährte. ... 0.5385 13 4699 0 0 26.08.05 00:00
5539 Ein Kind, Angstkind; zwei Kinder, Spielkinder. ... -0.3846 13 4696 0 0 26.08.05 00:00
5540 Geld führt den Krieg. ... 0.5238 21 4695 3 1 26.08.05 00:00
5541 Der Wirt läßt die Weine Hochzeit machen. ... -0.6000 5 4695 0 0 26.08.05 00:00
5542 Wo haben wir zusammen die Schweine gehütet? ... 1.0714 14 4694 0 0 26.08.05 00:00
5543 Bergab leite mich, bergauf schone mich, in ... -0.2000 5 4693 1 0 26.08.05 00:00
5544 Fische und Frauen sind am besten am Sterz. ... -0.9000 10 4693 0 0 26.08.05 00:00
5545 Armut sucht neue Wege. ... 0.7500 20 4690 0 0 26.08.05 00:00
5546 Nur das Gemeine verkennt man selten. ... 0.3750 16 4689 0 0 11.01.09 17:17
5547 Wer Rosen nicht im Sommer bricht, der bricht ... 0.2857 14 4689 0 0 26.08.05 00:00
5548 Morgen, morgen, nur nicht heute, sprechen ... -1.0000 2 4689 0 0 26.08.05 00:00
5549 Der Mann taub und die Frau stumm gibt die besten Ehen. ... 0.1000 10 4688 4 0 26.08.05 00:00
5550 Die Rache wird nimmer zur Hure. ... 0.0000 5 4688 1 0 26.08.05 00:00

[Favoriten] [Punkte] [Bewertungen] [Aufrufe] [Mails] [Kommentare] [Datum]

Seite 111 von 349 |< · < · [1] [2] [3] [4] [5] [6] [7] [8] [9] [10] [11] [12] [13] [14] [15] [16] [17] [18] [19] [20] [21] [22] [23] [24] [25] [26] [27] [28] [29] [30] [31] [32] [33] [34] [35] [36] [37] [38] [39] [40] [41] [42] [43] [44] [45] [46] [47] [48] [49] [50] [51] [52] [53] [54] [55] [56] [57] [58] [59] [60] [61] [62] [63] [64] [65] [66] [67] [68] [69] [70] [71] [72] [73] [74] [75] [76] [77] [78] [79] [80] [81] [82] [83] [84] [85] [86] [87] [88] [89] [90] [91] [92] [93] [94] [95] [96] [97] [98] [99] [100] [101] [102] [103] [104] [105] [106] [107] [108] [109] [110] [111] [112] [113] [114] [115] [116] [117] [118] [119] [120] [121] [122] [123] [124] [125] [126] [127] [128] [129] [130] [131] [132] [133] [134] [135] [136] [137] [138] [139] [140] [141] [142] [143] [144] [145] [146] [147] [148] [149] [150] [151] [152] [153] [154] [155] [156] [157] [158] [159] [160] [161] [162] [163] [164] [165] [166] [167] [168] [169] [170] [171] [172] [173] [174] [175] [176] [177] [178] [179] [180] [181] [182] [183] [184] [185] [186] [187] [188] [189] [190] [191] [192] [193] [194] [195] [196] [197] [198] [199] [200] [201] [202] [203] [204] [205] [206] [207] [208] [209] [210] [211] [212] [213] [214] [215] [216] [217] [218] [219] [220] [221] [222] [223] [224] [225] [226] [227] [228] [229] [230] [231] [232] [233] [234] [235] [236] [237] [238] [239] [240] [241] [242] [243] [244] [245] [246] [247] [248] [249] [250] [251] [252] [253] [254] [255] [256] [257] [258] [259] [260] [261] [262] [263] [264] [265] [266] [267] [268] [269] [270] [271] [272] [273] [274] [275] [276] [277] [278] [279] [280] [281] [282] [283] [284] [285] [286] [287] [288] [289] [290] [291] [292] [293] [294] [295] [296] [297] [298] [299] [300] [301] [302] [303] [304] [305] [306] [307] [308] [309] [310] [311] [312] [313] [314] [315] [316] [317] [318] [319] [320] [321] [322] [323] [324] [325] [326] [327] [328] [329] [330] [331] [332] [333] [334] [335] [336] [337] [338] [339] [340] [341] [342] [343] [344] [345] [346] [347] [348] [349] · > · >|

Zuletzt gesucht